Location: Newark
(35.5300°N, 14.3000°E)
Time: 20:55:06
(UTC+00:00)

S-56A Canister/Altair - Pass Details

Date: 20 November 2019
Orbit: 633 x 2500 km, 38.9° (Epoch: 12 December)

Event Time Altitude Azimuth Distance (km) Brightness Sun altitude
Rises 18:59:50 0° 283° (WNW) 4,411 12.3 -37.7°
Reaches altitude 10° 19:03:19 10° 285° (WNW) 3,137 11.3 -38.4°
Enters shadow 19:07:45 35° 294° (WNW) 1,543 9.3 -39.3°
